Year,Month,Day,Hour,Minute,Value (Times are PST for temperature in C)
2013,03,24,07,18,1.30
2013,03,24,07,19,1.30
2013,03,24,07,20,1.40
2013,03,24,07,21,1.40
2013,03,24,07,22,1.40
2013,03,24,07,23,1.50
2013,03,24,07,24,1.50
2013,03,24,07,25,1.50
2013,03,24,07,26,1.50
2013,03,24,07,27,1.50
2013,03,24,07,28,1.60
2013,03,24,07,29,1.60
2013,03,24,07,30,1.60
2013,03,24,07,31,1.60
2013,03,24,07,32,1.70
2013,03,24,07,33,1.70
2013,03,24,07,34,1.70
2013,03,24,07,35,1.70
2013,03,24,07,36,1.70
2013,03,24,07,37,1.80
2013,03,24,07,38,1.80
2013,03,24,07,39,1.80
2013,03,24,07,40,1.80
2013,03,24,07,41,1.80
2013,03,24,07,42,1.80
2013,03,24,07,43,1.80
2013,03,24,07,44,1.70
2013,03,24,07,45,1.70
2013,03,24,07,46,1.70
2013,03,24,07,47,1.70
2013,03,24,07,48,1.70
2013,03,24,07,49,1.80
2013,03,24,07,50,1.80
2013,03,24,07,51,1.80
2013,03,24,07,52,1.80
2013,03,24,07,53,1.80
2013,03,24,07,54,1.80
2013,03,24,07,55,1.80
2013,03,24,07,56,1.80
2013,03,24,07,57,1.80
2013,03,24,07,58,1.80
2013,03,24,07,59,1.90
2013,03,24,08,00,1.90
2013,03,24,08,01,2.00
2013,03,24,08,02,2.00
2013,03,24,08,03,2.10
2013,03,24,08,04,2.10
2013,03,24,08,05,2.10
2013,03,24,08,06,2.20
2013,03,24,08,07,2.20
2013,03,24,08,08,2.20
2013,03,24,08,09,2.20
2013,03,24,08,10,2.20
2013,03,24,08,11,2.20
2013,03,24,08,12,2.20
2013,03,24,08,13,2.20
2013,03,24,08,14,2.20
2013,03,24,08,15,2.20
2013,03,24,08,16,2.20
2013,03,24,08,17,2.20
2013,03,24,08,18,2.20
2013,03,24,08,19,2.20
2013,03,24,08,20,2.20
2013,03,24,08,21,2.20
2013,03,24,08,22,2.20
2013,03,24,08,23,2.20
2013,03,24,08,24,2.20
2013,03,24,08,25,2.20
2013,03,24,08,26,2.20
2013,03,24,08,27,2.20
2013,03,24,08,28,2.20
2013,03,24,08,29,2.20
2013,03,24,08,30,2.20
2013,03,24,08,31,2.20
2013,03,24,08,32,2.20
2013,03,24,08,33,2.20
2013,03,24,08,34,2.30
2013,03,24,08,35,2.30
2013,03,24,08,36,2.30
2013,03,24,08,37,2.30
2013,03,24,08,38,2.40
2013,03,24,08,39,2.40
2013,03,24,08,40,2.40
2013,03,24,08,41,2.40
2013,03,24,08,42,2.40
2013,03,24,08,43,2.50
2013,03,24,08,44,2.50
2013,03,24,08,45,2.50
2013,03,24,08,46,2.50
2013,03,24,08,47,2.50
2013,03,24,08,48,2.60
2013,03,24,08,49,2.60
2013,03,24,08,50,2.60
2013,03,24,08,51,2.60
2013,03,24,08,52,2.60
2013,03,24,08,53,2.60
2013,03,24,08,54,2.60
2013,03,24,08,55,2.70
2013,03,24,08,56,2.70
2013,03,24,08,57,2.70
2013,03,24,08,58,2.70
2013,03,24,08,59,2.80
2013,03,24,09,00,2.80
2013,03,24,09,01,2.80
2013,03,24,09,02,2.90
2013,03,24,09,03,2.90
2013,03,24,09,04,3.00
2013,03,24,09,05,3.00
2013,03,24,09,06,3.10
2013,03,24,09,07,3.10
2013,03,24,09,08,3.10
2013,03,24,09,09,3.20
2013,03,24,09,10,3.20
2013,03,24,09,11,3.30
2013,03,24,09,12,3.30
2013,03,24,09,13,3.30
2013,03,24,09,14,3.30
2013,03,24,09,15,3.40
2013,03,24,09,16,3.40
2013,03,24,09,17,3.40
2013,03,24,09,18,3.50
2013,03,24,09,19,3.50
2013,03,24,09,20,3.60
2013,03,24,09,21,3.60
2013,03,24,09,22,3.70
2013,03,24,09,23,3.70
2013,03,24,09,24,3.80
2013,03,24,09,25,3.80
2013,03,24,09,26,3.80
2013,03,24,09,27,3.80
2013,03,24,09,28,3.90
2013,03,24,09,29,3.90
2013,03,24,09,30,3.90
2013,03,24,09,31,3.90
2013,03,24,09,32,4.00
2013,03,24,09,33,4.00
2013,03,24,09,34,4.10
2013,03,24,09,35,4.10
2013,03,24,09,36,4.10
2013,03,24,09,37,4.10
2013,03,24,09,38,4.20
2013,03,24,09,39,4.20
2013,03,24,09,40,4.20
2013,03,24,09,41,4.20
2013,03,24,09,42,4.20
2013,03,24,09,43,4.30
2013,03,24,09,44,4.30
2013,03,24,09,45,4.40
2013,03,24,09,46,4.40
2013,03,24,09,47,4.40
2013,03,24,09,48,4.40
2013,03,24,09,49,4.50
2013,03,24,09,50,4.50
2013,03,24,09,51,4.50
2013,03,24,09,52,4.60
2013,03,24,09,53,4.60
2013,03,24,09,54,4.60
2013,03,24,09,55,4.60
2013,03,24,09,56,4.60
2013,03,24,09,57,4.70
2013,03,24,09,58,4.70
2013,03,24,09,59,4.70
2013,03,24,10,00,4.70
2013,03,24,10,01,4.70
2013,03,24,10,02,4.70
2013,03,24,10,03,4.80
2013,03,24,10,04,4.80
2013,03,24,10,05,4.80
2013,03,24,10,06,4.80
2013,03,24,10,07,4.80
2013,03,24,10,08,4.80
2013,03,24,10,09,4.80
2013,03,24,10,10,4.80
2013,03,24,10,11,4.80
2013,03,24,10,12,4.90
2013,03,24,10,13,4.90
2013,03,24,10,14,4.90
2013,03,24,10,15,4.90
2013,03,24,10,16,4.90
2013,03,24,10,17,4.90
2013,03,24,10,18,5.00
2013,03,24,10,19,5.00
2013,03,24,10,20,5.10
2013,03,24,10,21,5.10
2013,03,24,10,22,5.10
2013,03,24,10,23,5.10
2013,03,24,10,24,5.10
2013,03,24,10,25,5.10
2013,03,24,10,26,5.10
2013,03,24,10,27,5.20
2013,03,24,10,28,5.20
2013,03,24,10,29,5.20
2013,03,24,10,30,5.20
2013,03,24,10,31,5.20
2013,03,24,10,32,5.20
2013,03,24,10,33,5.20
2013,03,24,10,34,5.20
2013,03,24,10,35,5.20
2013,03,24,10,36,5.20
2013,03,24,10,37,5.30
2013,03,24,10,38,5.30
2013,03,24,10,39,5.30
2013,03,24,10,40,5.40
2013,03,24,10,41,5.40
2013,03,24,10,42,5.40
2013,03,24,10,43,5.50
2013,03,24,10,44,5.50
2013,03,24,10,45,5.60
2013,03,24,10,46,5.60
2013,03,24,10,47,5.60
2013,03,24,10,48,5.60
2013,03,24,10,49,5.70
2013,03,24,10,50,5.60
2013,03,24,10,51,5.60
2013,03,24,10,52,5.60
2013,03,24,10,53,5.60
2013,03,24,10,54,5.70
2013,03,24,10,55,5.70
2013,03,24,10,56,5.70
2013,03,24,10,57,5.80
2013,03,24,10,58,5.80
2013,03,24,10,59,5.90
2013,03,24,11,00,6.00
2013,03,24,11,01,6.10
2013,03,24,11,02,6.20
2013,03,24,11,03,6.20
2013,03,24,11,04,6.20
2013,03,24,11,05,6.20
2013,03,24,11,06,6.20
2013,03,24,11,07,6.30
2013,03,24,11,08,6.30
2013,03,24,11,09,6.30
2013,03,24,11,10,6.30
2013,03,24,11,11,6.30
2013,03,24,11,12,6.30
2013,03,24,11,13,6.30
2013,03,24,11,14,6.30
2013,03,24,11,15,6.20
2013,03,24,11,16,6.10
2013,03,24,11,17,6.10
2013,03,24,11,18,6.10
2013,03,24,11,19,6.10
2013,03,24,11,20,6.10
2013,03,24,11,21,6.10
2013,03,24,11,22,6.20
2013,03,24,11,23,6.30
2013,03,24,11,24,6.30
2013,03,24,11,25,6.30
2013,03,24,11,26,6.30
2013,03,24,11,27,6.30
2013,03,24,11,28,6.30
2013,03,24,11,29,6.30
2013,03,24,11,30,6.30
2013,03,24,11,31,6.30
2013,03,24,11,32,6.30
2013,03,24,11,33,6.40
2013,03,24,11,34,6.40
2013,03,24,11,35,6.40
2013,03,24,11,36,6.40
2013,03,24,11,37,6.40
2013,03,24,11,38,6.40
2013,03,24,11,39,6.30
2013,03,24,11,40,6.30
2013,03,24,11,41,6.30
2013,03,24,11,42,6.30
2013,03,24,11,43,6.30
2013,03,24,11,44,6.30
2013,03,24,11,45,6.20
2013,03,24,11,46,6.10
2013,03,24,11,47,6.10
2013,03,24,11,48,6.10
2013,03,24,11,49,6.10
2013,03,24,11,50,6.10
2013,03,24,11,51,6.10
2013,03,24,11,52,6.20
2013,03,24,11,53,6.20
2013,03,24,11,54,6.30
2013,03,24,11,55,6.30
2013,03,24,11,56,6.30
2013,03,24,11,57,6.30
2013,03,24,11,58,6.30
2013,03,24,11,59,6.20
2013,03,24,12,00,6.20
2013,03,24,12,01,6.10
2013,03,24,12,02,6.10
2013,03,24,12,03,6.10
2013,03,24,12,04,6.10
2013,03,24,12,05,6.10
2013,03,24,12,06,6.20
2013,03,24,12,07,6.20
2013,03,24,12,08,6.20
2013,03,24,12,09,6.30
2013,03,24,12,10,6.30
2013,03,24,12,11,6.20
2013,03,24,12,12,6.20
2013,03,24,12,13,6.20
2013,03,24,12,14,6.20
2013,03,24,12,15,6.20
2013,03,24,12,16,6.20
2013,03,24,12,17,6.20
2013,03,24,12,18,6.20
2013,03,24,12,19,6.20
2013,03,24,12,20,6.10
2013,03,24,12,21,6.10
2013,03,24,12,22,6.20
2013,03,24,12,23,6.10
2013,03,24,12,24,6.10
2013,03,24,12,25,6.10
2013,03,24,12,26,6.10
2013,03,24,12,27,6.10
2013,03,24,12,28,6.20
2013,03,24,12,29,6.10
2013,03,24,12,30,6.10
2013,03,24,12,31,6.10
2013,03,24,12,32,6.10
2013,03,24,12,33,6.00
2013,03,24,12,34,6.00
2013,03,24,12,35,6.00
2013,03,24,12,36,6.00
2013,03,24,12,37,6.10
2013,03,24,12,38,6.10
2013,03,24,12,39,6.10
2013,03,24,12,40,6.10
2013,03,24,12,41,6.10
2013,03,24,12,42,6.20
2013,03,24,12,43,6.20
2013,03,24,12,44,6.30
2013,03,24,12,45,6.30
2013,03,24,12,46,6.30
2013,03,24,12,47,6.40
2013,03,24,12,48,6.50
2013,03,24,12,49,6.50
2013,03,24,12,50,6.50
2013,03,24,12,51,6.50
2013,03,24,12,52,6.50
2013,03,24,12,53,6.60
2013,03,24,12,54,6.60
2013,03,24,12,55,6.60
2013,03,24,12,56,6.50
2013,03,24,12,57,6.50
2013,03,24,12,58,6.60
2013,03,24,12,59,6.60
2013,03,24,13,00,6.60
2013,03,24,13,01,6.60
2013,03,24,13,02,6.60
2013,03,24,13,03,6.60
2013,03,24,13,04,6.60
2013,03,24,13,05,6.60
2013,03,24,13,06,6.50
2013,03,24,13,07,6.50
2013,03,24,13,08,6.50
2013,03,24,13,09,6.60
2013,03,24,13,10,6.60
2013,03,24,13,11,6.60
2013,03,24,13,12,6.60
2013,03,24,13,13,6.60
2013,03,24,13,14,6.70
2013,03,24,13,15,6.70
2013,03,24,13,16,6.70
2013,03,24,13,17,6.70
2013,03,24,13,18,6.70
2013,03,24,13,19,6.70
2013,03,24,13,20,6.70
2013,03,24,13,21,6.70
2013,03,24,13,22,6.80
2013,03,24,13,23,6.70
2013,03,24,13,24,6.60
2013,03,24,13,25,6.60
2013,03,24,13,26,6.60
2013,03,24,13,27,6.70
2013,03,24,13,28,6.70
2013,03,24,13,29,6.70
2013,03,24,13,30,6.70
2013,03,24,13,31,6.70
2013,03,24,13,32,6.70
2013,03,24,13,33,6.70
2013,03,24,13,34,6.70
2013,03,24,13,35,6.80
2013,03,24,13,36,6.80
2013,03,24,13,37,6.80
2013,03,24,13,38,6.90
2013,03,24,13,39,6.80
2013,03,24,13,40,6.90
2013,03,24,13,41,6.90
2013,03,24,13,42,7.00
2013,03,24,13,43,7.00
2013,03,24,13,44,7.00
2013,03,24,13,45,7.10
2013,03,24,13,46,7.10
2013,03,24,13,47,7.10
2013,03,24,13,48,7.10
2013,03,24,13,49,7.10
2013,03,24,13,50,7.10
2013,03,24,13,51,7.10
2013,03,24,13,52,7.10
2013,03,24,13,53,7.20
2013,03,24,13,54,7.30
2013,03,24,13,55,7.30
2013,03,24,13,56,7.30
2013,03,24,13,57,7.30
2013,03,24,13,58,7.30
2013,03,24,13,59,7.40
2013,03,24,14,00,7.30
2013,03,24,14,01,7.30
2013,03,24,14,02,7.30
2013,03,24,14,03,7.30
2013,03,24,14,04,7.40
2013,03,24,14,05,7.40
2013,03,24,14,06,7.40
2013,03,24,14,07,7.40
2013,03,24,14,08,7.40
2013,03,24,14,09,7.40
2013,03,24,14,10,7.50
2013,03,24,14,11,7.50
2013,03,24,14,12,7.60
2013,03,24,14,13,7.50
2013,03,24,14,14,7.50
2013,03,24,14,15,7.50
2013,03,24,14,16,7.60
2013,03,24,14,17,7.60
2013,03,24,14,18,7.70
2013,03,24,14,19,7.70
2013,03,24,14,20,7.70
2013,03,24,14,21,7.70
2013,03,24,14,22,7.70
2013,03,24,14,23,7.70
2013,03,24,14,24,7.70
2013,03,24,14,25,7.70
2013,03,24,14,26,7.70
2013,03,24,14,27,7.70
2013,03,24,14,28,7.70
2013,03,24,14,29,7.70
2013,03,24,14,30,7.70
2013,03,24,14,31,7.70
2013,03,24,14,32,7.80
2013,03,24,14,33,7.80
2013,03,24,14,34,7.90
2013,03,24,14,35,7.90
2013,03,24,14,36,7.90
2013,03,24,14,37,7.90
2013,03,24,14,38,7.80
2013,03,24,14,39,7.80
2013,03,24,14,40,7.90
2013,03,24,14,41,7.90
2013,03,24,14,42,8.00
2013,03,24,14,43,8.00
2013,03,24,14,44,7.90
2013,03,24,14,45,7.90
2013,03,24,14,46,7.90
2013,03,24,14,47,7.90
2013,03,24,14,48,7.90
2013,03,24,14,49,7.90
2013,03,24,14,50,7.90
2013,03,24,14,51,7.90
2013,03,24,14,52,7.90
2013,03,24,14,53,7.90
2013,03,24,14,54,7.90
2013,03,24,14,55,7.90
2013,03,24,14,56,8.00
2013,03,24,14,57,8.00
2013,03,24,14,58,8.10
2013,03,24,14,59,8.10
2013,03,24,15,00,8.00
2013,03,24,15,01,8.00
2013,03,24,15,02,7.90
2013,03,24,15,03,7.80
2013,03,24,15,04,7.80
2013,03,24,15,05,7.80
2013,03,24,15,06,7.80
2013,03,24,15,07,7.80
2013,03,24,15,08,7.80
2013,03,24,15,09,7.80
2013,03,24,15,10,7.90
2013,03,24,15,11,8.00
2013,03,24,15,12,8.10
2013,03,24,15,13,8.00
2013,03,24,15,14,8.00
2013,03,24,15,15,8.10
2013,03,24,15,16,8.20
2013,03,24,15,17,8.30
2013,03,24,15,18,8.40
2013,03,24,15,19,8.40
2013,03,24,15,20,8.40
2013,03,24,15,21,8.40
2013,03,24,15,22,8.50
2013,03,24,15,23,8.50
2013,03,24,15,24,8.60
2013,03,24,15,25,8.70
2013,03,24,15,26,8.60
2013,03,24,15,27,8.60
2013,03,24,15,28,8.60
2013,03,24,15,29,8.60
2013,03,24,15,30,8.60
2013,03,24,15,31,8.60
2013,03,24,15,32,8.60
2013,03,24,15,33,8.60
2013,03,24,15,34,8.50
2013,03,24,15,35,8.50
2013,03,24,15,36,8.40
2013,03,24,15,37,8.50
2013,03,24,15,38,8.50
2013,03,24,15,39,8.50
2013,03,24,15,40,8.50
2013,03,24,15,41,8.50
2013,03,24,15,42,8.50
2013,03,24,15,43,8.50
2013,03,24,15,44,8.50
2013,03,24,15,45,8.50
2013,03,24,15,46,8.50
2013,03,24,15,47,8.60
2013,03,24,15,48,8.60
2013,03,24,15,49,8.60
2013,03,24,15,50,8.70
2013,03,24,15,51,8.70
2013,03,24,15,52,8.80
2013,03,24,15,53,8.80
2013,03,24,15,54,8.80
2013,03,24,15,55,8.80
2013,03,24,15,56,8.80
2013,03,24,15,57,8.90
2013,03,24,15,58,8.90
2013,03,24,15,59,9.00
2013,03,24,16,00,9.10
2013,03,24,16,01,9.10
2013,03,24,16,02,9.10
2013,03,24,16,03,9.10
2013,03,24,16,04,9.10
2013,03,24,16,05,9.00
2013,03,24,16,06,9.00
2013,03,24,16,07,9.00
2013,03,24,16,08,9.10
2013,03,24,16,09,9.10
2013,03,24,16,10,9.20
2013,03,24,16,11,9.20
2013,03,24,16,12,9.20
2013,03,24,16,13,9.20
2013,03,24,16,14,9.20
2013,03,24,16,15,9.10
2013,03,24,16,16,9.00
2013,03,24,16,17,9.00
2013,03,24,16,18,9.00
2013,03,24,16,19,9.00
2013,03,24,16,20,9.00
2013,03,24,16,21,9.10
2013,03,24,16,22,9.10
2013,03,24,16,23,9.00
2013,03,24,16,24,9.00
2013,03,24,16,25,8.90
2013,03,24,16,26,8.80
2013,03,24,16,27,8.80
2013,03,24,16,28,8.80
2013,03,24,16,29,8.80
2013,03,24,16,30,8.70
2013,03,24,16,31,8.70
2013,03,24,16,32,8.60
2013,03,24,16,33,8.60
2013,03,24,16,34,8.60
2013,03,24,16,35,8.60
2013,03,24,16,36,8.60
2013,03,24,16,37,8.60
2013,03,24,16,38,8.60
2013,03,24,16,39,8.60
2013,03,24,16,40,8.60
2013,03,24,16,41,8.60
2013,03,24,16,42,8.60
2013,03,24,16,43,8.70
2013,03,24,16,44,8.70
2013,03,24,16,45,8.80
2013,03,24,16,46,8.80
2013,03,24,16,47,8.80
2013,03,24,16,48,8.80
2013,03,24,16,49,8.80
2013,03,24,16,50,8.80
2013,03,24,16,51,8.70
2013,03,24,16,52,8.80
2013,03,24,16,53,8.80
2013,03,24,16,54,8.80
2013,03,24,16,55,8.90
2013,03,24,16,56,8.90
2013,03,24,16,57,8.90
2013,03,24,16,58,9.00
2013,03,24,16,59,9.00
2013,03,24,17,00,9.00
2013,03,24,17,01,9.00
2013,03,24,17,02,8.90
2013,03,24,17,03,8.90
2013,03,24,17,04,8.90
2013,03,24,17,05,9.00
2013,03,24,17,06,9.10
2013,03,24,17,07,9.10
2013,03,24,17,08,9.10
2013,03,24,17,09,9.10
2013,03,24,17,10,9.10
2013,03,24,17,11,9.00
2013,03,24,17,12,9.00
2013,03,24,17,13,8.90
2013,03,24,17,14,9.00
2013,03,24,17,15,9.00
2013,03,24,17,16,9.00
2013,03,24,17,17,9.00
2013,03,24,17,18,9.00
2013,03,24,17,19,9.00
2013,03,24,17,20,9.10
2013,03,24,17,21,9.10
2013,03,24,17,22,9.10
2013,03,24,17,23,9.00
2013,03,24,17,24,9.00
2013,03,24,17,25,8.90
2013,03,24,17,26,8.80
2013,03,24,17,27,8.80
2013,03,24,17,28,8.80
2013,03,24,17,29,8.80
2013,03,24,17,30,8.70
2013,03,24,17,31,8.80
2013,03,24,17,32,8.80
2013,03,24,17,33,8.80
2013,03,24,17,34,8.80
2013,03,24,17,35,8.80
2013,03,24,17,36,8.80
2013,03,24,17,37,8.80
2013,03,24,17,38,8.80
2013,03,24,17,39,8.70
2013,03,24,17,40,8.70
2013,03,24,17,41,8.70
2013,03,24,17,42,8.70
2013,03,24,17,43,8.70
2013,03,24,17,44,8.70
2013,03,24,17,45,8.60
2013,03,24,17,46,8.60
2013,03,24,17,47,8.60
2013,03,24,17,48,8.60
2013,03,24,17,49,8.60
2013,03,24,17,50,8.60
2013,03,24,17,51,8.60
2013,03,24,17,52,8.60
2013,03,24,17,53,8.70
2013,03,24,17,54,8.70
2013,03,24,17,55,8.70
2013,03,24,17,56,8.70
2013,03,24,17,57,8.60
2013,03,24,17,58,8.60
2013,03,24,17,59,8.60
2013,03,24,18,00,8.60
2013,03,24,18,01,8.60
2013,03,24,18,02,8.60
2013,03,24,18,03,8.60
2013,03,24,18,04,8.50
2013,03,24,18,05,8.50
2013,03,24,18,06,8.50
2013,03,24,18,07,8.50
2013,03,24,18,08,8.50
2013,03,24,18,09,8.50
2013,03,24,18,10,8.50
2013,03,24,18,11,8.50
2013,03,24,18,12,8.50
2013,03,24,18,13,8.40
2013,03,24,18,14,8.40
2013,03,24,18,15,8.40
2013,03,24,18,16,8.40
2013,03,24,18,17,8.40
2013,03,24,18,18,8.40
2013,03,24,18,19,8.40
2013,03,24,18,20,8.40
2013,03,24,18,21,8.40
2013,03,24,18,22,8.40
2013,03,24,18,23,8.40
2013,03,24,18,24,8.40
2013,03,24,18,25,8.40
2013,03,24,18,26,8.40
2013,03,24,18,27,8.40
2013,03,24,18,28,8.40
2013,03,24,18,29,8.40
2013,03,24,18,30,8.40
2013,03,24,18,31,8.40
2013,03,24,18,32,8.40
2013,03,24,18,33,8.40
2013,03,24,18,34,8.40
2013,03,24,18,35,8.40
2013,03,24,18,36,8.40
2013,03,24,18,37,8.40
2013,03,24,18,38,8.40
2013,03,24,18,39,8.40
2013,03,24,18,40,8.40
2013,03,24,18,41,8.40
2013,03,24,18,42,8.40
2013,03,24,18,43,8.40
2013,03,24,18,44,8.40
2013,03,24,18,45,8.40
2013,03,24,18,46,8.40
2013,03,24,18,47,8.40
2013,03,24,18,48,8.40
2013,03,24,18,49,8.30
2013,03,24,18,50,8.30
2013,03,24,18,51,8.30
2013,03,24,18,52,8.30
2013,03,24,18,53,8.30
2013,03,24,18,54,8.20
2013,03,24,18,55,8.20
2013,03,24,18,56,8.20
2013,03,24,18,57,8.20
2013,03,24,18,58,8.20
2013,03,24,18,59,8.20
2013,03,24,19,00,8.10
2013,03,24,19,01,8.10
2013,03,24,19,02,8.10
2013,03,24,19,03,8.10
2013,03,24,19,04,8.00
2013,03,24,19,05,8.00
2013,03,24,19,06,8.00
2013,03,24,19,07,7.90
2013,03,24,19,08,7.90
2013,03,24,19,09,7.90
2013,03,24,19,10,7.90
2013,03,24,19,11,7.90
2013,03,24,19,12,7.80
2013,03,24,19,13,7.80
2013,03,24,19,14,7.80
2013,03,24,19,15,7.80
2013,03,24,19,16,7.80
2013,03,24,19,17,7.70
2013,03,24,19,18,7.70
2013,03,24,19,19,7.70
2013,03,24,19,20,7.70
2013,03,24,19,21,7.70
2013,03,24,19,22,7.70
2013,03,24,19,23,7.60
2013,03,24,19,24,7.60
2013,03,24,19,25,7.60
2013,03,24,19,26,7.60
2013,03,24,19,27,7.60
2013,03,24,19,28,7.60
2013,03,24,19,29,7.50
2013,03,24,19,30,7.50
2013,03,24,19,31,7.50
2013,03,24,19,32,7.50
2013,03,24,19,33,7.40
2013,03,24,19,34,7.40
2013,03,24,19,35,7.40
2013,03,24,19,36,7.40
2013,03,24,19,37,7.40
2013,03,24,19,38,7.30
2013,03,24,19,39,7.30
2013,03,24,19,40,7.30
2013,03,24,19,41,7.30
2013,03,24,19,42,7.30
2013,03,24,19,43,7.20
2013,03,24,19,44,7.20
2013,03,24,19,45,7.20
2013,03,24,19,46,7.20
2013,03,24,19,47,7.20
2013,03,24,19,48,7.10
2013,03,24,19,49,7.10
2013,03,24,19,50,7.10
2013,03,24,19,51,7.10
2013,03,24,19,52,7.10
2013,03,24,19,53,7.00
2013,03,24,19,54,7.00
2013,03,24,19,55,7.00
2013,03,24,19,56,6.90
2013,03,24,19,57,6.90
2013,03,24,19,58,6.90
2013,03,24,19,59,6.90
2013,03,24,20,00,6.90
2013,03,24,20,01,6.90
2013,03,24,20,02,6.90
2013,03,24,20,03,6.90
2013,03,24,20,04,6.90
2013,03,24,20,05,6.90
2013,03,24,20,06,6.90
2013,03,24,20,07,6.90
2013,03,24,20,08,6.90
2013,03,24,20,09,6.90
2013,03,24,20,10,6.90
2013,03,24,20,11,6.90
2013,03,24,20,12,6.90
2013,03,24,20,13,6.90
2013,03,24,20,14,6.90
2013,03,24,20,15,6.90
2013,03,24,20,16,6.90
2013,03,24,20,17,6.80
2013,03,24,20,18,6.80
2013,03,24,20,19,6.80
2013,03,24,20,20,6.80
2013,03,24,20,21,6.80
2013,03,24,20,22,6.70
2013,03,24,20,23,6.70
2013,03,24,20,24,6.60
2013,03,24,20,25,6.60
2013,03,24,20,26,6.60
2013,03,24,20,27,6.60
2013,03,24,20,28,6.50
2013,03,24,20,29,6.50
2013,03,24,20,30,6.40
2013,03,24,20,31,6.40
2013,03,24,20,32,6.40
2013,03,24,20,33,6.40
2013,03,24,20,34,6.30
2013,03,24,20,35,6.30
2013,03,24,20,36,6.30
2013,03,24,20,37,6.30
2013,03,24,20,38,6.40
2013,03,24,20,39,6.40
2013,03,24,20,40,6.40
2013,03,24,20,41,6.40
2013,03,24,20,42,6.40
2013,03,24,20,43,6.40
2013,03,24,20,44,6.40
2013,03,24,20,45,6.40
2013,03,24,20,46,6.40
2013,03,24,20,47,6.40
2013,03,24,20,48,6.40
2013,03,24,20,49,6.40
2013,03,24,20,50,6.40
2013,03,24,20,51,6.40
2013,03,24,20,52,6.50
2013,03,24,20,53,6.50
2013,03,24,20,54,6.60
2013,03,24,20,55,6.60
2013,03,24,20,56,6.60
2013,03,24,20,57,6.60
2013,03,24,20,58,6.60
2013,03,24,20,59,6.70
2013,03,24,21,00,6.70
2013,03,24,21,01,6.70
2013,03,24,21,02,6.70
2013,03,24,21,03,6.70
2013,03,24,21,04,6.80
2013,03,24,21,05,6.80
2013,03,24,21,06,6.80
2013,03,24,21,07,6.80
2013,03,24,21,08,6.80
2013,03,24,21,09,6.90
2013,03,24,21,10,6.90
2013,03,24,21,11,6.90
2013,03,24,21,12,6.90
2013,03,24,21,13,6.90
2013,03,24,21,14,6.90
2013,03,24,21,15,6.90
2013,03,24,21,16,6.90
2013,03,24,21,17,6.90
2013,03,24,21,18,6.90
2013,03,24,21,19,6.90
2013,03,24,21,20,6.90
2013,03,24,21,21,6.90
2013,03,24,21,22,6.90
2013,03,24,21,23,6.90
2013,03,24,21,24,6.90
2013,03,24,21,25,6.90
2013,03,24,21,26,6.90
2013,03,24,21,27,6.90
2013,03,24,21,28,6.90
2013,03,24,21,29,6.90
2013,03,24,21,30,6.90
2013,03,24,21,31,6.90
2013,03,24,21,32,6.90
2013,03,24,21,33,6.90
2013,03,24,21,34,6.90
2013,03,24,21,35,6.90
2013,03,24,21,36,6.90
2013,03,24,21,37,6.80
2013,03,24,21,38,6.80
2013,03,24,21,39,6.80
2013,03,24,21,40,6.80
2013,03,24,21,41,6.80
2013,03,24,21,42,6.80
2013,03,24,21,43,6.80
2013,03,24,21,44,6.80
2013,03,24,21,45,6.80
2013,03,24,21,46,6.80
2013,03,24,21,47,6.80
2013,03,24,21,48,6.70
2013,03,24,21,49,6.70
2013,03,24,21,50,6.70
2013,03,24,21,51,6.70
2013,03,24,21,52,6.70
2013,03,24,21,53,6.70
2013,03,24,21,54,6.70
2013,03,24,21,55,6.70
2013,03,24,21,56,6.70
2013,03,24,21,57,6.70
2013,03,24,21,58,6.70
2013,03,24,21,59,6.70
2013,03,24,22,00,6.70
2013,03,24,22,01,6.70
2013,03,24,22,02,6.70
2013,03,24,22,03,6.70
2013,03,24,22,04,6.70
2013,03,24,22,05,6.70
2013,03,24,22,06,6.60
2013,03,24,22,07,6.60
2013,03,24,22,08,6.60
2013,03,24,22,09,6.60
2013,03,24,22,10,6.60
2013,03,24,22,11,6.60
2013,03,24,22,12,6.60
2013,03,24,22,13,6.60
2013,03,24,22,14,6.60
2013,03,24,22,15,6.60
2013,03,24,22,16,6.60
2013,03,24,22,17,6.60
2013,03,24,22,18,6.60
2013,03,24,22,19,6.50
2013,03,24,22,20,6.50
2013,03,24,22,21,6.40
2013,03,24,22,22,6.40
2013,03,24,22,23,6.40
2013,03,24,22,24,6.30
2013,03,24,22,25,6.30
2013,03,24,22,26,6.30
2013,03,24,22,27,6.20
2013,03,24,22,28,6.20
2013,03,24,22,29,6.20
2013,03,24,22,30,6.10
2013,03,24,22,31,6.10
2013,03,24,22,32,6.10
2013,03,24,22,33,6.10
2013,03,24,22,34,6.00
2013,03,24,22,35,6.00
2013,03,24,22,36,5.90
2013,03,24,22,37,5.90
2013,03,24,22,38,5.90
2013,03,24,22,39,5.90
2013,03,24,22,40,5.90
2013,03,24,22,41,5.80
2013,03,24,22,42,5.80
2013,03,24,22,43,5.80
2013,03,24,22,44,5.70
2013,03,24,22,45,5.70
2013,03,24,22,46,5.60
2013,03,24,22,47,5.60
2013,03,24,22,48,5.50
2013,03,24,22,49,5.50
2013,03,24,22,50,5.40
2013,03,24,22,51,5.30
2013,03,24,22,52,5.30
2013,03,24,22,53,5.30
2013,03,24,22,54,5.30
2013,03,24,22,55,5.20
2013,03,24,22,56,5.20
2013,03,24,22,57,5.20
2013,03,24,22,58,5.20
2013,03,24,22,59,5.20
2013,03,24,23,00,5.20
2013,03,24,23,01,5.20
2013,03,24,23,02,5.20
2013,03,24,23,03,5.10
2013,03,24,23,04,5.10
2013,03,24,23,05,5.10
2013,03,24,23,06,5.10
2013,03,24,23,07,5.20
2013,03,24,23,08,5.20
2013,03,24,23,09,5.30
2013,03,24,23,10,5.40
2013,03,24,23,11,5.50
2013,03,24,23,12,5.60
2013,03,24,23,13,5.70
2013,03,24,23,14,5.80
2013,03,24,23,15,5.80
2013,03,24,23,16,5.80
2013,03,24,23,17,5.80
2013,03,24,23,18,5.80
2013,03,24,23,19,5.80
2013,03,24,23,20,5.80
2013,03,24,23,21,5.70
2013,03,24,23,22,5.70
2013,03,24,23,23,5.70
2013,03,24,23,24,5.70
2013,03,24,23,25,5.60
2013,03,24,23,26,5.60
2013,03,24,23,27,5.60
2013,03,24,23,28,5.60
2013,03,24,23,29,5.70
2013,03,24,23,30,5.70
2013,03,24,23,31,5.70
2013,03,24,23,32,5.60
2013,03,24,23,33,5.70
2013,03,24,23,34,5.70
2013,03,24,23,35,5.60
2013,03,24,23,36,5.60
2013,03,24,23,37,5.70
2013,03,24,23,38,5.70
2013,03,24,23,39,5.70
2013,03,24,23,40,5.70
2013,03,24,23,41,5.70
2013,03,24,23,42,5.70
2013,03,24,23,43,5.70
2013,03,24,23,44,5.70
2013,03,24,23,45,5.70
2013,03,24,23,46,5.70
2013,03,24,23,47,5.80
2013,03,24,23,48,5.80
2013,03,24,23,49,5.80
2013,03,24,23,50,5.80
2013,03,24,23,51,5.80
2013,03,24,23,52,5.80
2013,03,24,23,53,5.80
2013,03,24,23,54,5.80
2013,03,24,23,55,5.80
2013,03,24,23,56,5.80
2013,03,24,23,57,5.80
2013,03,24,23,58,5.80
2013,03,24,23,59,5.80
